Location: Beugnon
(47.6222°N, 3.7850°E)
Time: 03:46:29
(UTC+00:00)

CZ-2C R/B - Pass Details

Date: 09 April 2020
Orbit: 785 x 870 km, 98.3° (Epoch: 04 June)

Event Time Altitude Azimuth Distance (km) Brightness Sun altitude
Rises 19:16:46 0° 22° (NNE) 3,289 5.8 -8.9°
Reaches altitude 10° 19:19:22 10° 33° (NNE) 2,356 4.9 -9.3°
Maximum altitude 19:23:56 31° 95° (E) 1,371 3.3 -10.0°
Drops below altitude 10° 19:28:30 10° 156° (SSE) 2,361 4.6 -10.7°
Sets 19:31:06 0° 167° (SSE) 3,297 5.4 -11.1°
